This is the latest recevied weather packets stored in our database for station/object KF0EZB. If no packets are shown the sender has not sent any weather packets the latest 10 day(s).
| Time | Temp. | Humidity | Pressure | Rain* | Wind** | Luminosity | Snow |
|---|---|---|---|---|---|---|---|
| 1777171251 | 10.56° C | 88% | 1009.2 hPa | 0 mm | - | 0 W/m² | - |
| 1777170945 | 10.56° C | 88% | 1009.3 hPa | 0 mm | - | 0 W/m² | - |
| 1777170641 | 10.56° C | 88% | 1009.1 hPa | 0 mm | - | 0 W/m² | - |
| 1777170337 | 10.56° C | 88% | 1008.9 hPa | 0 mm | - | 0 W/m² | - |
| 1777170035 | 11.11° C | 87% | 1008.8 hPa | 0 mm | - | 0 W/m² | - |
| 1777169732 | 11.11° C | 87% | 1008.6 hPa | 0 mm | - | 0 W/m² | - |
| 1777169428 | 11.11° C | 87% | 1008.8 hPa | 0 mm | - | 0 W/m² | - |
| 1777169127 | 11.11° C | 87% | 1008.8 hPa | 0 mm | - | 0 W/m² | - |
| 1777168823 | 11.67° C | 87% | 1008.7 hPa | 0 mm | - | 0 W/m² | - |
| 1777168519 | 11.67° C | 86% | 1008.3 hPa | 0 mm | - | 0 W/m² | - |
| 1777168217 | 11.67° C | 86% | 1008.2 hPa | 0 mm | - | 0 W/m² | - |
| 1777167915 | 11.67° C | 86% | 1007.9 hPa | 0 mm | - | 0 W/m² | - |
| 1777167609 | 12.22° C | 85% | 1008.1 hPa | 0 mm | - | 0 W/m² | - |
| 1777167305 | 12.22° C | 85% | 1008 hPa | 0 mm | - | 0 W/m² | - |
| 1777167001 | 12.78° C | 84% | 1007.7 hPa | 0 mm | - | 0 W/m² | - |
| 1777166697 | 12.78° C | 84% | 1007.7 hPa | 0 mm | - | 0 W/m² | - |
| 1777166392 | 12.78° C | 83% | 1007.6 hPa | 0 mm | - | 1 W/m² | - |
| 1777166088 | 13.33° C | 83% | 1007.6 hPa | 0 mm | - | 4 W/m² | - |
| 1777165786 | 13.33° C | 83% | 1007.5 hPa | 0 mm | - | 7 W/m² | - |
| 1777165483 | 13.89° C | 83% | 1007.5 hPa | 0 mm | - | 12 W/m² | - |
| 1777165179 | 13.89° C | 82% | 1007.5 hPa | 0 mm | - | 16 W/m² | - |
| 1777164874 | 14.44° C | 82% | 1007.3 hPa | 0 mm | - | 19 W/m² | - |
| 1777164267 | 15° C | 81% | 1007.3 hPa | 0 mm | - | 28 W/m² | - |
| 1777163962 | 15° C | 80% | 1007.2 hPa | 0 mm | - | 26 W/m² | - |
| 1777163662 | 15.56° C | 80% | 1007.4 hPa | 0 mm | - | 27 W/m² | - |
* Rain latest hour (hover to see other rain measurements)
** Current wind speed in m/s (hover to see current wind gust speed)